Flag for Canada Weather past 2 weeks in Regina, Saskatchewan, Canada

Now
30 °F

Ice fog.


Feels Like: 23 °F
Forecast: 20 / 27 °F
Wind: 8 mph from Northwest

Location: Regina Weather Station

Current Time: Dec 20, 2014 at 7:15:30 PM

Latest Report: Dec 20, 2014 at 6:00 PM


Visibility: 6 mi

Pressure: 29.79 "Hg

Humidity: 100%

Dew point: 30 °F

Location of ReginaLocation

Historic Weather in Regina — Graph

°F

Regina temperature yesterday

Maximum temperature yesterday: 23 °F (at 12:00 AM)
Minimum temperature yesterday: 14 °F (at 10:00 PM)
Average temperature yesterday: 18 °F

Past Weeks' High & Low Weather Summary

 TemperatureHumidityPressure
High39 °F (Dec 10, 4:00 AM)100% (Dec 5, 8:00 PM)30.51 "Hg (Dec 5, 8:00 PM)
Low10 °F (Dec 5, 10:00 PM)74% (Dec 15, 8:00 PM)29.73 "Hg (Dec 12, 5:00 AM)
Average24 °F90%30.08 "Hg
* Reported Dec 5 6:00 PM — Dec 20 6:00 PM, Regina, Weather by CustomWeather, © 2014

Note: Actual official high and low records may vary slightly from our data, if they occured in-between our weather recording intervals... More about our weather records

Advertising

Regina weather history for previous 24 hours

 ConditionsComfort  
Time TempWeatherWind HumidityBarometerVisibility
6:00 PM
Dec 20
30 °FIce fog.8 mph100%29.79 "Hg6 mi
5:00 PM30 °FLow clouds.3 mph100%29.79 "Hg15 mi
4:00 PM28 °FIce fog.5 mph100%29.80 "Hg6 mi
3:00 PM28 °FIce fog.8 mph100%29.79 "Hg5 mi
2:00 PM28 °FIce fog.10 mph100%29.80 "Hg5 mi
1:00 PM27 °FLight snow. Mostly cloudy.14 mph100%29.82 "Hg6 mi
12:00 PM25 °FSleet. Ice fog.13 mph100%29.84 "Hg6 mi
11:00 AM23 °FSleet. Ice fog.13 mph100%29.86 "Hg2 mi
10:00 AM21 °FSleet. Ice fog.15 mph93%29.87 "Hg2 mi
9:00 AM19 °FSleet. Ice fog.15 mph100%29.88 "Hg6 mi
8:00 AM19 °FIce fog.17 mph100%29.88 "Hg6 mi
7:00 AM19 °FIce fog.17 mph100%29.89 "Hg1 mi
6:00 AM19 °FIce fog.15 mph93%29.90 "Hg1 mi
5:00 AM19 °FIce fog.15 mph93%29.92 "Hg1 mi
4:00 AM19 °FIce fog.15 mph93%29.93 "Hg1 mi
3:00 AM18 °FIce fog.15 mph93%29.94 "Hg1 mi
2:00 AM16 °FIce fog.13 mph93%29.96 "Hg1 mi
1:00 AM16 °FIce fog.13 mph93%29.98 "Hg1 mi
12:00 AM16 °FIce fog.13 mph93%30.01 "Hg1 mi
11:00 PM
Dec 19
14 °FIce fog.13 mph92%30.02 "Hg1 mi
10:00 PM14 °FIce fog.9 mph92%30.03 "Hg1 mi
9:00 PM16 °FIce fog.9 mph93%30.02 "Hg1 mi
8:00 PM16 °FIce fog.9 mph93%30.03 "Hg1 mi
7:00 PM16 °FIce fog.8 mph93%30.03 "Hg4 mi
Weather by CustomWeather, © 2014

See weather overviewHow to use our weather pages